Weather in Nachalo

Russia / Voronezh Oblast     50°13′43″N   39°34′29″E
temp.,
°C
wind,
m/s
gust,
m/s
humid.,
%
clouds,
%
prec.,
mm/h
press.,
hPa
HPBL,
m
19 january, wed
wed1900:00−10ssw239876 0.1 100939
03:00−13wsw2210092 0.1 101114
06:00−10wsw119798 0.2 101225
09:00−8nnw4994100 0.4 1014303
12:00−7n4692100 0.1 1016404
15:00−7nnw459397 0.3 1017421
18:00−10nw489566 0.1 1018231
21:00−17nw229847 0.1 101911
20 january, thu
thu2000:00−20nw2210044 0.0 102017
03:00−22wnw2110053 0.0 102110
06:00−24wnw1110062 0.0 10219
09:00−23sw1110051 0.0 102111
12:00−13ssw24905 0.0 1020167
15:00−11s36915 0.0 1018195
18:00−17sse249822 0.0 101738
21:00−12sse31192100 0.0 1016214
21 january, fri
fri2100:00−8sse51292100 0.1 1015313
03:00−7sse51395100 0.2 1013357
06:00−5sse71795100 0.3 1009460
09:00−3s71795100 1.8 1007640
12:000s61297100 0.7 1006741
15:000ssw61290100 0.8 1006754
18:00−4wsw6128724 0.2 1008439
21:00−8sw412925 0.2 1010226
22 january, sat
sat2200:00−9ssw412935 0.0 1011213
03:00−11ssw4109525 0.0 1011159
06:00−12s379644 0.0 101296
09:00−14s259853 0.0 101370
12:00−7ssw399073 0.0 1014292
15:00−6sse369293 0.0 1014242
18:00−12se229861 0.0 101614
21:00−15sse2210075 0.0 101810
23 january, sun
sun2300:00−17se1110077 0.0 10199
03:00−18ene1110090 0.0 10219
06:00−18ne11100100 0.0 10229
09:00−13ne2298100 0.0 102345
12:00−7ne3593100 0.0 1023179
15:00−6nne5993100 0.0 1023343
18:00−7nne61490100 0.0 1023404
21:00−7nne71592100 0.1 1022462